Tracking 17558 objects as of 14-February-2016
HD Live streaming from Space Station
objects crossing your sky now

SL-12 R/B(AUX MOTOR)

Track SL-12 R/B(AUX MOTOR) now!


NORAD ID: 25053
Int'l Code: 1997-070E
Perigee: 1,015.7 km
Apogee: 33,146.6 km
Inclination: 45.9 °
Period: 595.7 minutes
Semi major axis: 23452 km
RCS: 0.8237 m2 (medium)
Launch date: November 12, 1997
Source: Commonwealth of Independent States (former USSR) (CIS)
Launch site: TYURATAM MISSILE AND SPACE COMPLEX (TTMTR)

Note: This is a ROCKET BODY
Your satellite tracking list
Your tracking list is empty





NASA's NSSDC Master Catalog

Two Line Element Set (TLE):
1 25053U 97070E   16044.13215726 -.00000009  00000-0  33842-2 0  9992
2 25053  45.8652 268.8530 6850326  28.5946 356.0516  2.4172907716566
Source of the keplerian elements: AFSPC

N2YO: 391